Время (UTC), дата Ветер
(°,м/с) 
Видим.   Явления Облачность Т
(°С)
Тd
(°С)
f(%) Тe
(°С)
Pmin
(гПа)
dP
(гПа)
Po
(мм)
O2
(г/м3)
Тmin Tmax R s Состояние
почвы
00 01.06.12 240 (ЮЗ) >10 км  слаб. ливневой дождь  10/8 630 м кучево-дожд., средняя 
[Cb cap|Ac und]
+14.7 +13.7 94 +22  1013.9  -0.3  721  273           
03 01.06.12 290 (З) 10 км  слаб. ливневой дождь  10/8 750 м кучево-дожд., средняя 
[Cb cap|Ac und]
+15.1 +14.3 95 +24  1014  0.2  721  272           
06 01.06.12 350 (С) 2000 м  ливневой дождь  10/8 200 м кучево-дожд., средняя 
[Cb cap|Ac und]
+14.5 +13.9 96 +23  1014.8  0.6  722  273  +14.5       
09 01.06.12 350 (С) >10 км  слаб. ливневой дождь  10/8 150 м кучево-дожд., средняя 
[Cb cap|Ac und]
+15.2 +13.9 92 +24  1014.8  0.2  722  273           
12 01.06.12 330 (СЗ) >10 км  {ливн. осадки}  9/5 300 м кучево-дожд., средняя 
[Cb calv|Ac trans]
+19.1 +12.7 66 +26  1013.3  -0.8  721  269           
15 01.06.12 310 (СЗ) 10 км  гроза, ливневой дождь  10/6 300 м кучево-дожд., средняя 
[Cb cap|Ac und]
+15.8 +14.5 92 +26  1014.5  0.6  722  272    +20       
18 01.06.12 320 (СЗ) >10 км  в посл. час ливневой дождь{гроза}  6/4 300 м кучево-дожд., средняя 
[Cb calv|Ac trans]
+15.1 +14.1 94 +24  1015.7  722  273    +20  34     
21 01.06.12 250 (З) >10 км    6/3 600 м кучево-дожд., средняя 
[Cb calv|Ac trans]
+13.3 +12.4 94 +18  1015.9  0.1  722  275           
00 02.06.12 220 (ЮЗ) >10 км    3/0 средняя 
[Ac trans]
+12.3 +11.3 94 +17  1016.2  -0.1  722  276           
03 02.06.12 290 (З) >10 км    8/5 330 м кучево-дожд., средняя 
[Cb calv|Ac trans]
+14.1 +12.7 91 +20  1016.7  0.8  723  274           
06 02.06.12 280 (З) >10 км    8/5 300 м кучево-дожд., верхняя 
[Cb calv|Ci fib]
+16.7 +13.3 80 +24  1016.5  0.3  723  272  +11.8       
09 02.06.12 290 (З) >10 км    8/8 600 м кучево-дожд. 
[Cb calv]
+20 +12.4 62 +25  1015.7  -0.2  723  269           
12 02.06.12 290 (З) >10 км    5/5 600 м 
[Cu med, cong]
+22 +12 53 +27  1015.3  723  267           
15 02.06.12 280 (З) >10 км    8/5 1000 м кучево-дожд., верхняя 
[Cb calv|Ci fib]
+20.3 +12.2 60 +25  1015.4  -0.2  723  269    +22       
18 02.06.12 280 (З) >10 км    3/0 средняя 
[Ac trans]
+15.9 +11.4 75 +21  1017.6  1.3  724  273    +22       
21 02.06.12 280 (З) >10 км    4/0 средняя 
[Ac trans]
+14.7 +10.4 75 +17  1017.9  0.1  724  275           
00 03.06.12 290 (З) >10 км    8/5 600 м кучево-дожд., средняя 
[Cb calv|Ac trans]
+14.8 +10.3 74 +17  1018.4  0.4  724  275           
03 03.06.12 270 (З) >10 км    5/3 600 м кучево-дожд., средняя 
[Cb calv|Ac trans]
+15.5 +10.3 71 +17  1019.3  0.9  725  275           
06 03.06.12 300 (СЗ) >10 км    3/3 600 м кучево-дожд. 
[Cb calv]
+18.5 +13.5 73 +26  1019.5  0.8  726  271          замёрзшая 
09 03.06.12 300 (СЗ) >10 км    5/5 600 м 
[Cu hum]
+20.9 +12.5 59 +26  1019.1  726  269           
12 03.06.12 270 (З) >10 км    8/8 600 м 
[Cu hum]
+21.6 +12.7 57 +27  1018.5  -0.4  725  268           
15 03.06.12 270 (З) >10 км    6/6 900 м 
[Cu hum]
+20.9 +13 61 +27  1018.5  -0.2  725  269    +22       
18 03.06.12 260 (З) >10 км    3/0 средняя 
[Ac trans]
+16.7 +12.8 78 +24  1020.1  0.8  726  273    +22       
21 03.06.12 290 (З) >10 км    1/0 средняя 
[Ac trans]
+15.5 +12.5 82 +21  1019.7  -0.6  725  274           
00 04.06.12 310 (СЗ) >10 км    5/0 средняя 
[Ac trans]
+16.1 +10.9 71 +20  1018.8  -0.6  725  274           
03 04.06.12 тихо ()   >10 км    1/0 верхняя 
[Ci fib]
+17.1 +12.9 76 +23  1018.4  -0.2  725  272           
06 04.06.12 140 (ЮВ) >10 км    3/0 верхняя 
[Ci fib]
+21.4 +13.7 61 +29  1017.9  0.3  725  268  -4         
09 04.06.12 170 (Ю) >10 км    5/5 600 м 
[Cu hum]
+25.1 +12.7 46 +31  1016.2  -1.1  724  265           
12 04.06.12 060 (СВ) >10 км    3/3 600 м верхняя 
[Cu hum|Ci fib]
+26.5 +11.8 40 +31  1014.5  -1.4  723  263           
15 04.06.12 080 (В) >10 км    3/0 средняя, верхняя 
[Ac trans|Ci fib]
+25.7 +12.9 45 +32  1013.4  -1.1  722  263    +26.9       
18 04.06.12 100 (В) >10 км    1/0 верхняя 
[Ci fib]
+19.6 +13.2 67 +27  1014.3  -0.2  722  269    +26.9       
21 04.06.12 080 (В) >10 км    8/0 средняя, верхняя 
[Ac trans|Ci fib]
+18.5 +13.3 72 +26  1013.2  -1.2  721  269           
00 05.06.12 140 (ЮВ) >10 км    4/0 верхняя 
[Ci fib]
+16.6 +12.8 78 +23  1012.1  -1.4  720  271           
03 05.06.12 080 (В) >10 км    4/0 верхняя 
[Ci fib]
+17.6 +14 79 +26  1011.1  -0.7  720  269           
06 05.06.12 090 (В) >10 км    4/3 600 м верхняя 
[Cu hum|Ci fib]
+22.7 +15.2 63 +33  1009.5  -0.6  719  264  +14.6         
09 05.06.12 090 (В) >10 км    3/3 600 м 
[Cu hum]
+25.4 +15.9 56 +37  1008  -0.6  718  261           
12 05.06.12 140 (ЮВ) >10 км    4/3 600 м средняя 
[Cu hum|Ac trans]
+25.4 +15.9 56 +37  1008  -0.8  718  261           
15 05.06.12 270 (З) >10 км    10/5 1000 м кучево-дожд., средняя 
[Cb calv|Ac trans]
+24.3 +16.6 62 +37  1007.7  0.3  718  262    +28.3       
18 05.06.12 270 (З) >10 км    8/3 1000 м кучево-дожд., средняя 
[Cb calv|Ac trans]
+19.8 +16.6 82 +34  1008.2  -0.2  718  266    +28.3       
21 05.06.12 310 (СЗ) >10 км    5/0 средняя 
[Ac trans]
+19.5 +16.8 84 +33  1008.2  0.1  718  266           
00 06.06.12 260 (З) >10 км    6/0 средняя 
[Ac trans]
+17.8 +14.8 83 +28  1007.8  -0.7  717  268           
03 06.06.12 310 (СЗ) >10 км    6/6 1170 м кучево-дожд. 
[Cb calv]
+18 +15.5 85 +29  1008.1  0.3  717  268           
06 06.06.12 350 (С) >10 км    1/1 600 м 
[Cu hum]
+22.2 +15.6 66 +33  1007.8  0.5  718  264  +17.1         
09 06.06.12 020 (С) 44  0500 м    1/1 1000 м 
[Cu hum]
+13.9   1007.3  718             
12 06.06.12 110 (В) >10 км    3/3 600 м 
[Cu hum]
+25.2 +14.5 51 +34  1006.2  -0.9  717  262           
15 06.06.12 290 (З) >10 км    3/1 1000 м верхняя 
[Cu hum|Ci fib]
+25.2 +14.3 51 +34  1005.8  -0.4  717  261           
18 06.06.12 320 (СЗ) >10 км    3/0 верхняя 
[Ci fib]
+21.4 +14.9 66 +31  1006.7  0.3  717  265    +28.3       
21 06.06.12 180 (Ю) >10 км    3/0 верхняя 
[Ci fib]
+18.7 +14.6 77 +29  1006.9  -0.3  717  267           
00 07.06.12 тихо ()   >10 км    1/0 верхняя 
[Ci fib]
+17.4 +13.5 78 +25  1006.3  -0.9  716  268           
03 07.06.12 170 (Ю) >10 км    6/0 средняя 
[Ac trans]
+21.1 +16 73 +33  1006.2  0.6  717  265           
06 07.06.12 190 (Ю) >10 км    8/3 600 м кучево-дожд., средняя 
[Cb calv|Ac trans]
+22.3 +16 67 +34  1006.2  0.2  717  263  +15.2         
09 07.06.12 360 (С) >10 км    9/5 600 м кучево-дожд., средняя 
[Cb calv|Ac trans]
+23.6 +16.5 64 +36  1006  717  262           
12 07.06.12 020 (С) >10 км  в посл. час гроза{ливн. осадки}  10/5 600 м кучево-дожд., средняя 
[Cb calv|Ac und]
+22.1 +18.2 79 +38  1005.7  -0.5  716  263           
15 07.06.12 030 (СВ) >10 км    10/3 600 м кучево-дожд., средняя 
[Cb calv|Ac und]
+21.9 +17.7 77 +37  1005.4  -0.4  716  263    +24.6       
18 07.06.12 330 (СЗ) >10 км  гроза без осадков{ливн. осадки}  9/5 600 м кучево-дожд., средняя 
[Cb calv|Ac trans]
+16.8 +13.8 82 +25  1008.5  718  270    +24.6     
21 07.06.12 240 (ЮЗ) >10 км  {гроза}  10/5 600 м кучево-дожд., средняя 
[Cb calv|Ac und]
+16.6 +15.2 91 +27  1009.2  0.6  718  269           
00 08.06.12 280 (З) >10 км  {гроза}  6/1 600 м кучево-дожд., средняя 
[Cb calv|Ac trans]
+16.3 +14.8 91 +27  1009.3  0.1  718  270           
03 08.06.12 280 (З) >10 км    8/0 верхняя 
[Ci]
+17.3 +15.9 91 +29  1010.1  0.9  719  269           
06 08.06.12 310 (СЗ) >10 км    8/4 300 м верхняя 
[Sc diur, vesp|Ci fib]
+20 +15.8 77 +31  1010.7  720  267  +14.6       
09 08.06.12 290 (З) >10 км    9/6 600 м кучево-дожд., верхняя 
[Cb calv|Ci fib]
+22.6 +15.6 65 +33  1010.7  0.5  720  265           
12 08.06.12 200 (Ю) 10 км  слаб. ливневой дождь  9/8 800 м кучево-дожд., верхняя 
[Cb calv|Ci fib]
+18.9 +17.2 90 +34  1012.5  1.1  721  268           
15 08.06.12 220 (ЮЗ) >10 км  гроза, ливневой дождь  10/8 600 м кучево-дожд., верхняя 
[Cb cap|Ci fib]
+18.7 +17.2 91 +33  1013.4  0.8  721  268    +22.8       
18 08.06.12 260 (З) >10 км  гроза без осадков{ливн. осадки}  8/5 600 м кучево-дожд., верхняя 
[Cb calv|Ci fib]
+17.3 +15.5 89 +28  1015.1  1.3  722  270    +22.8  0.5     
21 08.06.12 290 (З) >10 км  {гроза}  4/3 600 м кучево-дожд., верхняя 
[Cb calv|Ci fib]
+16.4 +14.1 86 +24  1016.4  1.1  723  272           
00 09.06.12 310 (СЗ) >10 км  {гроза}  3/0 верхняя 
[Ci fib]
+14.8 +11.9 83 +20  1017.8  724  274           
03 09.06.12 320 (СЗ) >10 км    4/0 верхняя 
[Ci fib]
+16.1 +11.5 74 +20  1019.2  1.6  725  274           
06 09.06.12 010 (С) >10 км    3/3 600 м 
[Cu hum]
+20.2 +11.8 58 +25  1019.6  1.1  726  270  +14.3       
09 09.06.12 150 (ЮВ) >10 км    6/6 800 м 
[Cu hum]
+21.6 +10.9 51 +25  1019.2  0.1  726  269           
12 09.06.12 020 (С) >10 км    4/4 1000 м 
[Cu hum]
+24 +11.2 45 +27  1018.6  -0.2  726  267           
18 09.06.12 040 (СВ) >10 км    ясно 
+19.5 +10 54 +23  1020.2  0.9  726  271    +24.3       
21 09.06.12 200 (Ю) >10 км    ясно 
+16.7 +10.3 66 +20  1020.4  -0.3  726  274           
00 10.06.12 тихо ()   >10 км    ясно 
+16 +10.2 68 +18  1020.5  -0.3  726  274           
03 10.06.12 110 (В) >10 км    ясно 
+18.5 +13.3 72 +26  1020.2  0.2  726  271           
06 10.06.12 090 (В) >10 км    ясно 
+22.4 +13.8 58 +30  1019.1  -0.3  726  267  +15.1         
09 10.06.12 110 (В) >10 км    ясно 
+26.1 +11 39 +29  1017.1  -1.3  725  265           
12 10.06.12 110 (В) >10 км    ясно 
+27.3 +11.3 37 +31  1015.9  -1  724  263           
15 10.06.12 120 (ЮВ) >10 км    ясно 
+26.1 +11 39 +29  1014.8  -1.2  723  264    +27.3       
18 10.06.12 140 (ЮВ) >10 км    ясно 
+20.6 +13 62 +27  1015.4  -0.4  723  268    +27.3       
21 10.06.12 110 (В) >10 км    ясно 
+17.6 +13.1 75 +24  1014.7  -1.1  722  271           
00 11.06.12 140 (ЮВ) >10 км    ясно 
+17.2 +13 76 +24  1014.4  -0.4  722  271           
03 11.06.12 120 (ЮВ) >10 км    ясно 
+18.5 +14.3 77 +27  1013.7  -0.4  722  269           
06 11.06.12 120 (ЮВ) >10 км    ясно 
+24.8 +9.9 39 +27  1012.2  -0.4  721  265  +16         
09 11.06.12 110 (В) >10 км    ясно 
+27.3 +10 34 +29  1010.9  -0.9  721  262           
12 11.06.12 110 (В) >10 км    ясно 
+29 +11.5 34 +33  1009.1  -1.4  719  260           
15 11.06.12 120 (ЮВ) >10 км    ясно 
+27.6 +12.1 38 +33  1008.7  -0.6  719  261    +29.2       
18 11.06.12 130 (ЮВ) >10 км    ясно 
+22.5 +12.9 55 +29  1009.8  719  265    +29.2       
21 11.06.12 110 (В) >10 км    ясно 
+18.5 +12.6 68 +25  1009.8  -0.5  719  269           
00 12.06.12 170 (Ю) >10 км    ясно 
+17.2 +10.7 66 +21  1009.4  -0.7  718  270           
03 12.06.12 140 (ЮВ) >10 км    ясно 
+19.6 +11.9 61 +26  1009  0.1  718  268           
06 12.06.12 140 (ЮВ) >10 км    ясно 
+25.2 +13.8 49 +33  1008.5  0.5  719  262  +16.5         
09 12.06.12 120 (ЮВ) >10 км    ясно 
+29.7 +13.9 38 +38  1007.5  -0.2  719  258           
12 12.06.12 050 (СВ) >10 км    ясно 
+31.3 +13.4 34 +38  1007.1  -0.2  718  257           
15 12.06.12 030 (СВ) >10 км    1/0 средняя 
[Ac trans]
+30.9 +12.5 32 +37  1007.5  0.3  719  258    +31.6       
18 12.06.12 330 (СЗ) >10 км    ясно 
+26 +14.1 48 +34  1009  0.3  719  262    +31.6       
21 12.06.12 320 (СЗ) >10 км    ясно 
+25.1 +12.3 45 +30  1009.2  719  263           
00 13.06.12 330 (СЗ) >10 км    ясно 
+23.2 +15.8 63 +34  1009.9  0.4  719  264           
03 13.06.12 320 (СЗ) >10 км    ясно 
+24.1 +16.9 64 +37  1010.7  720  263           
06 13.06.12 320 (СЗ) >10 км    ясно 
+27.6 +17.5 54 +42  1010.8  0.6  721  260  +23.1         
09 13.06.12 320 (СЗ) >10 км    1/1 600 м 
[Cu hum]
+31.6 +15.4 38 +42  1010  0.1  721  257           
12 13.06.12 040 (СВ) >10 км    1/1 600 м 
[Cu hum]
+32.7 +13.7 32 +40  1009.8  0.1  720  257           
15 13.06.12 360 (С) >10 км    1/1 600 м 
[Cu hum]
+32.2 +13.6 32 +40  1009.2  -0.6  720  257    +33.6       
18 13.06.12 340 (С) >10 км    ясно 
+27.4 +16.6 52 +40  1010.8  0.7  721  260    +33.6       
21 13.06.12 330 (СЗ) >10 км    ясно 
+25.8 +13.4 46 +33  1011.3  0.2  721  263           
00 14.06.12 350 (С) >10 км    ясно 
+24.3 +15.1 56 +34  1011.6  0.1  721  264           
03 14.06.12 360 (С) >10 км    ясно 
+24.8 +15.5 56 +35  1011.6  721  263           
06 14.06.12 140 (ЮВ) >10 км    ясно 
+29.2 +17.3 49 +43  1010.8  721  259  +20.9         
09 14.06.12 100 (В) >10 км    ясно 
+34 +12.2 27 +39  1009.3  -0.8  720  256           
12 14.06.12 120 (ЮВ) >10 км    ясно 
+35.3 +10.1 22 +37  1007.6  -1.4  719  255           
15 14.06.12 120 (ЮВ) >10 км    ясно 
+33.6 +8.5 21 +34  1007  -0.9  719  256    +35.5       
18 14.06.12 100 (В) >10 км    ясно 
+25.5 +10.5 39 +28  1008.8  0.5  719  263    +35.5       
21 14.06.12 090 (В) >10 км    ясно 
+22.3 +11.1 49 +26  1009.2  -0.2  719  266           
00 15.06.12 130 (ЮВ) >10 км    1/0 верхняя 
[Ci fib]
+21.7 +9.4 45 +23  1008.6  -0.7  718  266           
03 15.06.12 170 (Ю) >10 км    9/0 верхняя 
[Ci fib]
+22.7 +12.6 53 +28  1008.6  0.2  718  265           
06 15.06.12 290 (З) >10 км    10/3 1000 м средняя, верхняя 
[Sc|Ac und|Ci fib]
+27.6 +18.2 57 +44  1008.6  0.9  719  259  +20.8         
09 15.06.12 320 (СЗ) >10 км    9/3 1000 м верхняя 
[Sc|Ci fib]
+29.7 +18 49 +45  1009.1  0.8  720  257           
12 15.06.12 320 (СЗ) >10 км    9/5 600 м кучево-дожд., верхняя 
[Cb calv|Ci fib]
+28.3 +18.8 56 +46  1010.1  0.8  720  259           
15 15.06.12 310 (СЗ) >10 км    10/5 1000 м средняя 
[Sc diur, vesp|Ac und]
+25.9 +18.8 65 +43  1011  0.5  721  261    +30.8       
18 15.06.12 220 (ЮЗ) >10 км  {ливн. осадки}  8/4 1000 м кучево-дожд., средняя 
[Cb calv|Ac trans]
+23.5 +19.5 78 +42  1011.9  0.5  721  263    +30.8       
21 15.06.12 300 (СЗ) >10 км    4/3 1000 м кучево-дожд., средняя 
[Cb calv|Ac trans]
+23.2 +17.8 72 +38  1011.3  -0.7  720  263           
00 16.06.12 290 (З) >10 км    3/0 средняя 
[Ac trans]
+22 +18.6 81 +39  1011.7  0.2  721  264           
03 16.06.12 020 (С) 16  0700 м    3/3 2000 м кучево-дожд., средняя 
[Cb calv|Ac trans]
+18.5   1012.4  0.6  721             
06 16.06.12 280 (З) >10 км    4/3 600 м средняя 
[Cu hum|Ac trans]
+23.5 +18.9 75 +41  1012.1  0.1  721  263  +21.3    0.0     
09 16.06.12 330 (СЗ) >10 км  гроза без осадков{ливн. осадки}  10/8 700 м кучево-дожд., средняя 
[Cb cap|Ac und]
+19.2 +15.7 80 +30  1014.7  1.7  722  269           
12 16.06.12 270 (З) >10 км  {гроза, ливн. осадки}  10/4 600 м кучево-дожд., средняя 
[Cb cap|Ac und]
+20.9 +17.1 79 +35  1014.3  0.1  722  266           
15 16.06.12 260 (З) >10 км    10/3 1000 м кучево-дожд., средняя 
[Cb calv|Ac und]
+21.2   1013.6  -0.7  722      +25.8       
18 16.06.12 290 (З) >10 км    3/0 верхняя 
[Ci fib]
+19.4 +12.7 65 +26  1015.3  1.2  723  269    +25.8     
21 16.06.12 290 (З) >10 км    3/0 верхняя 
[Ci fib]
+16.7 +12 74 +21  1015.9  1.2  723  272           
00 17.06.12 280 (З) >10 км    3/0 верхняя 
[Ci fib]
+15.8 +11.3 75 +19  1015.5  0.6  722  273           
03 17.06.12 280 (З) >10 км    4/0 средняя, верхняя 
[Sc|Ac trans|Ci fib]
+16.6 +10.9 69 +19  1015  -0.3  722  272           
06 17.06.12 270 (З) 12{18}  >10 км    8/8 870 м кучево-дожд. 
[Cb calv]
+18.7 +11.8 64 +22  1013.2  -1.1  721  270  +15.1         
09 17.06.12 270 (З) 12-18{20}  >10 км    8/5 600 м кучево-дожд., средняя 
[Cb calv|Ac trans]
+19.9 +12.9 64 +26  1012.2  -0.7  721  268           
12 17.06.12 280 (З) 9{22}  >10 км  гроза, ливневой дождь  8/6 450 м кучево-дожд., средняя 
[Cb cap|Ac trans]
+16.4 +14.3 87 +25  1012.2  -0.7  721  271           
15 17.06.12 280 (З) 8{19}  >10 км  в посл. час гроза{ливн. осадки}  9/8 540 м кучево-дожд., средняя 
[Cb calv|Ac trans]
+17.9 +14.7 82 +27  1013.5  -0.7  721  270           
18 17.06.12 270 (З) >10 км  слаб. ливневой дождь{гроза}  10/6 600 м кучево-дожд., средняя 
[Cb cap|Ac trans]
+17 +14.8 87 +25  1014.4  0.7  722  271    +20.1     
21 17.06.12 280 (З) >10 км  {ливн. осадки}  10/8 540 м кучево-дожд., средняя 
[Cb calv|Ac und]
+16.6 +14.9 90 +26  1013.4  -1.1  721  271           
00 18.06.12 300 (СЗ) >10 км  слаб. ливневой дождь  10/8 240 м кучево-дожд., средняя 
[Cb cap|Ac trans]
+16.4 +15.4 94 +26  1012.5  -0.9  720  270           
03 18.06.12 310 (СЗ) 10 км  в посл. час ливневой дождь  10/8 330 м кучево-дожд., средняя 
[Cb cap|Ac und]
+16.5 +15.7 95 +27  1013.1  0.3  721  270           
06 18.06.12 310 (СЗ) >10 км  {ливн. осадки}  10/8 300 м кучево-дожд., средняя 
[Cb calv|Ac und]
+16.9 +14.9 88 +27  1013.8  0.5  721  271  +21.3       
09 18.06.12 310 (СЗ) >10 км    9/6 750 м кучево-дожд., средняя 
[Cb calv|Ac trans]
+20.8 +14.9 69 +30  1013.9  0.7  722  267           
12 18.06.12 330 (СЗ) >10 км    8/5 600 м кучево-дожд., средняя 
[Cb calv|Ac trans]
+22.8 +13.5 56 +30  1013.8  0.2  722  266           
15 18.06.12 330 (СЗ) >10 км    10/8 840 м кучево-дожд., средняя 
[Cb calv|Ac und]
+21.3 +14.4 65 +30  1015.1  723  267    +24.1       
18 18.06.12 270 (З) >10 км    6/0 средняя 
[Ac trans]
+19.7 +14.8 73 +29  1016.3  0.8  724  269    +24.1       
21 18.06.12 280 (З) >10 км    ясно 
+19.5 +14.3 72 +28  1016.1  -0.3  723  269           
00 19.06.12 280 (З) >10 км    ясно 
+18.8 +13.7 72 +26  1015.7  -0.5  723  270           
03 19.06.12 280 (З) >10 км    3/0 средняя 
[Ac trans]
+19.4 +14.6 74 +29  1015.7  0.1  723  269           
06 19.06.12 310 (СЗ) >10 км    5/5 600 м кучево-дожд. 
[Cb calv]
+19.4 +14.6 74 +29  1015.7  723  269  +17.9         
09 19.06.12 320 (СЗ) >10 км    5/5 600 м 
[Cu hum]
+25.1 +14.1 50 +33  1014.4  -0.4  723  264           
12 19.06.12 320 (СЗ) >10 км    3/3 600 м 
[Cu hum]
+26.4 +8.4 32 +26  1013.7  -0.5  722  264           
15 19.06.12 340 (С) >10 км    3/3 600 м 
[Cu hum]
+25.7 +11 40 +29  1013.3  -0.4  722  264    +26.8       
18 19.06.12 320 (СЗ) >10 км    ясно 
+20.5 +10 51 +22  1014.9  0.6  723  269           
21 19.06.12 320 (СЗ) >10 км    ясно 
+18.7 +6.8 46 +19  1015.2  0.1  722  271           
00 20.06.12 350 (С) >10 км    ясно 
+16.2 +7.6 57 +18  1015.1  -0.5  722  273           
03 20.06.12 350 (С) >10 км    1/1 <0100 м средняя 
[Ac trans]
+19 +8.7 51 +21  1014.5  0.1  722  270           
06 20.06.12 150 (ЮВ) >10 км    ясно 
+23.7 +10.4 43 +26  1013.3  -0.3  722  266  +13.3         
09 20.06.12 010 (С) >10 км    1/0 верхняя 
[Ci fib]
+24.9 +7 32 +25  1012.7  -0.4  722  265           
12 20.06.12 360 (С) >10 км    ясно 
+25.7 +8.4 33 +26  1012.2  -0.3  721  264           
15 20.06.12 020 (С) >10 км    1/0 верхняя 
[Ci fib]
+25.1 +7.9 33 +25  1011.7  -0.6  721  265    +26       
18 20.06.12 020 (С) >10 км    ясно 
+19.4 +9.3 52 +22  1012.9  0.2  721  270    +26       
21 20.06.12 тихо ()   >10 км    ясно 
+18.9 +7.6 48 +19  1012.4  -0.6  721  270           
00 21.06.12 240 (ЮЗ) >10 км    1/0 средняя 
[Ac trans]
+14.8 +8.1 64 +15  1012.4  -0.7  720  274           
03 21.06.12 320 (СЗ) >10 км    4/0 средняя 
[Ac trans]
+19.3 +8.2 49 +20  1011.7  0.1  720  270           
06 21.06.12 330 (СЗ) >10 км    4/0 средняя 
[Ac trans]
+24.7 +8.2 35 +25  1010.8  0.1  720  265  +13.9         
09 21.06.12 250 (З) >10 км    4/3 600 м верхняя 
[Cu hum|Ci fib]
+26.6 +8 31 +27  1010.4  -0.2  720  263           
12 21.06.12 270 (З) >10 км    4/3 600 м кучево-дожд., верхняя 
[Cb calv|Ci fib]
+28 +9.6 32 +29  1009  -1.1  719  261           
15 21.06.12 300 (СЗ) >10 км    6/3 600 м кучево-дожд., верхняя 
[Cb calv|Ci fib]
+26.3 +10.4 37 +29  1008.3  -0.8  719  262    +28       
18 21.06.12 270 (З) >10 км  гроза без осадков  6/3 600 м кучево-дожд., верхняя 
[Cb calv|Ci fib]
+20.5 +13.7 65 +28  1009.9  0.6  719  267    +28       
21 21.06.12 290 (З) >10 км  в посл. час гроза  6/3 1000 м кучево-дожд., верхняя 
[Cb cap|Ci fib]
+22.1 +14.4 62 +31  1009.3  -0.3  719  265           
00 22.06.12 280 (З) >10 км  {гроза}  4/0 верхняя 
[Ci fib]
+19.7 +15.1 75 +31  1009.4  -0.3  719  267           
03 22.06.12 270 (З) >10 км    3/0 средняя 
[Ac trans]
+21.6 +15.9 70 +33  1009.3  0.3  719  265           
06 22.06.12 320 (СЗ) >10 км    ясно 
+24.9 +16 58 +37  1009.7  0.9  719  262    +30      мокрая 
09 22.06.12 340 (С) >10 км    8/6 700 м кучево-дожд., верхняя 
[Cb calv|Ci fib]
+27.5 +15.7 49 +39  1009.8  0.5  720  260           
12 22.06.12 330 (СЗ) >10 км    4/3 600 м верхняя 
[Cu hum|Ci fib]
+28.7 +12 36 +34  1009.3  -0.3  720  260           
15 22.06.12 330 (СЗ) >10 км    3/3 600 м 
[Cu hum]
+28.1 +12.4 38 +34  1009.5  0.1  720  261    +29.1       
18 22.06.12 360 (С) >10 км    1/0 средняя 
[Ac trans]
+24.4 +11.1 43 +28  1011.4  1.2  721  264    +29.1       
21 22.06.12 010 (С) >10 км    3/0 верхняя 
[Ci fib]
+21.6 +10.5 49 +24  1012.4  0.4  721  267           
00 23.06.12 тихо ()   >10 км    3/0 верхняя 
[Ci fib]
+19.6 +8.2 48 +20  1012.4  -0.3  721  269           
03 23.06.12 050 (СВ) >10 км    1/0 верхняя 
[Ci fib]
+23.8 +8.7 38 +24  1012.3  0.6  721  266           
06 23.06.12 150 (ЮВ) >10 км    ясно 
+27.1 +9 32 +28  1012.7  0.9  722  263  +18.6         
09 23.06.12 020 (С) >10 км    1/1 600 м 
[Sc]
+28.7 +7.1 26 +29  1012.8  0.3  722  262           
12 23.06.12 330 (СЗ) >10 км    1/1 600 м 
[Cu hum]
+29.3 +7.9 26 +29  1012.3  -0.4  722  261           
15 23.06.12 020 (С) >10 км    ясно 
+28.4 +7.7 27 +28  1012.3  0.1  722  262    +29.6       
18 23.06.12 040 (СВ) >10 км    ясно 
+23.1 +7.6 37 +23  1014.1  0.9  722  267    +29.6       
21 23.06.12 060 (СВ) >10 км    ясно 
+21.1 +2.3 29 +21  1014.9  0.3  723  270           
00 24.06.12 060 (СВ) >10 км    ясно 
+18.7 +3.9 37 +20  1014.8  -0.4  722  272           
03 24.06.12 230 (ЮЗ) >10 км    ясно 
+20.5 +11 54 +24  1014.5  0.1  722  269           
06 24.06.12 100 (В) >10 км    ясно 
+26.6 +4.6 24 +27  1013.4  -0.2  722  264  +17.4         
09 24.06.12 050 (СВ) >10 км    ясно 
+28.9 +3.8 20 +29  1012.4  -0.6  722  262           
12 24.06.12 360 (С) >10 км    1/1 600 м 
[Cu hum]
+30.8 +1.5 15 +31  1010.8  -1.2  721  261           
15 24.06.12 050 (СВ) >10 км    1/1 600 м 
[Cu hum]
+29.9 +3.3 18 +30  1009.7  -1.1  720  261    +31       
18 24.06.12 030 (СВ) >10 км    ясно 
+24 +4.3 28 +24  1011.9  1.1  721  266    +31       
21 24.06.12 060 (СВ) >10 км    ясно 
+22 +3.1 29 +22  1012.1  -0.2  721  268           
00 25.06.12 150 (ЮВ) >10 км    ясно 
+20.6 +3.6 33 +21  1011.5  -0.8  720  269           
03 25.06.12 180 (Ю) >10 км    ясно 
+23.2 +11.2 47 +27  1011  0.1  720  265           
06 25.06.12 150 (ЮВ) >10 км    3/0 верхняя 
[Ci fib]
+28.4 +10 32 +30  1010.6  0.4  720  261  +18.7         
09 25.06.12 090 (В) >10 км    4/0 верхняя 
[Ci fib]
+31.1 +4.6 19 +31  1009.6  -0.6  720  260           
12 25.06.12 090 (В) >10 км    5/0 верхняя 
[Ci fib]
+32.3 +4.6 18 +32  1008.5  -0.8  719  258           
15 25.06.12 090 (В) >10 км    8/0 верхняя 
[Ci fib]
+30.4 +5.1 20 +30  1008.4  -0.4  719  260    +32.5       
18 25.06.12 060 (СВ) >10 км    8/0 верхняя 
[Ci fib]
+25.8 +5.7 28 +26  1009.8  0.6  720  264    +32.5       
21 25.06.12 150 (ЮВ) >10 км    5/0 верхняя 
[Ci fib]
+23.4 +6.6 34 +23  1010  -0.2  719  266           
00 26.06.12 140 (ЮВ) >10 км    ясно 
+21.7 +8.7 43 +22  1010  -0.3  719  267           
03 26.06.12 130 (ЮВ) >10 км    8/0 средняя, верхняя 
[Ac trans|Ci fib]
+21 +12.1 57 +26  1010.4  0.4  719  267           
06 26.06.12 130 (ЮВ) >10 км    8/0 средняя, верхняя 
[Ac trans|Ci fib]
+29 +6.4 24 +29  1009.3  0.4  720  261  +18.9         
09 26.06.12 120 (ЮВ) >10 км    9/0 средняя, верхняя 
[Ac trans|Ci fib]
+29.4 +6 23 +29  1008.8  -0.4  719  261           
12 26.06.12 150 (ЮВ) >10 км    9/0 средняя, верхняя 
[Ac trans|Ci fib]
+30.1 +6.3 22 +30  1007.9  -0.7  719  260           
15 26.06.12 160 (Ю) >10 км    9/0 верхняя 
[Ci fib]
+29 +8.2 27 +29  1007.8  -0.2  719  260    +31.6       
18 26.06.12 250 (З) >10 км    8/0 средняя 
[Ac trans]
+22.6 +16.5 68 +35  1009.2  0.5  719  264    +31.6       
21 26.06.12 300 (СЗ) >10 км    6/0 верхняя 
[Ci fib]
+21.6 +16.1 71 +33  1008.7  -0.7  718  265           
00 27.06.12 270 (З) >10 км    3/0 средняя 
[Ac trans]
+19.4 +15.4 78 +31  1008.9  -0.2  718  267           
03 27.06.12 260 (З) >10 км    8/0 средняя 
[Ac trans]
+20.6 +15.2 71 +31  1009.1  -0.2  719  266           
06 27.06.12 290 (З) >10 км    6/1 600 м средняя 
[Cu hum|Ac trans]
+24.6 +16.7 61 +38  1007.9  -0.4  718  262  +18.9         
09 27.06.12 290 (З) >10 км    8/3 600 м средняя 
[Cu hum|Ac trans]
+28.4 +16.9 50 +42  1007  -0.3  718  258           
12 27.06.12 280 (З) >10 км    8/3 600 м кучево-дожд., средняя, верхняя 
[Cb calv|Ac trans|Ci fib]
+28.7 +15.8 46 +40  1005.7  -1.2  717  258           
15 27.06.12 340 (С) >10 км  гроза без осадков  9/5 600 м кучево-дожд., средняя, верхняя 
[Cb calv|Ac trans|Ci fib]
+23.6 +16 62 +35  1007.3  0.7  718  263    +29.8       
18 27.06.12 200 (Ю) >10 км  {гроза, ливн. осадки}  10/8 900 м кучево-дожд., средняя 
[Cb calv|Ac und]
+20 +17.8 87 +35  1008.5  0.5  718  265    +29.8       
21 27.06.12 290 (З) >10 км  в посл. час гроза{ливн. осадки}  8/4 600 м кучево-дожд., средняя 
[Cb calv|Ac trans]
+18.9 +17.5 92 +35  1008.1  -0.6  718  266           
00 28.06.12 300 (СЗ) >10 км  {гроза, ливн. осадки}  9/3 600 м кучево-дожд., средняя 
[Cb calv|Ac trans]
+18 +16.8 93 +32  1008.1  0.1  718  267           
03 28.06.12 330 (СЗ) 4000 м  слаб. ливневой дождь  10/8 700 м кучево-дожд., средняя 
[Cb cap|Ac und]
+17.2 +15.9 92 +29  1008.3  718  268           
06 28.06.12 320 (СЗ) 10 км  слаб. ливневой дождь  10/6 600 м кучево-дожд., средняя 
[Cb cap|Ac und]
+14.4 +13.3 93 +21  1010.3  1.3  719  272  +14.3    11     
09 28.06.12 330 (СЗ) 10 км  слаб. ливневой дождь  10/8 720 м кучево-дожд., средняя 
[Cb cap|Ac und]
+14.3 +12.3 88 +19  1011  0.6  719  273           
12 28.06.12 290 (З) >10 км  {ливн. осадки}  10/3 600 м кучево-дожд., средняя 
[Cb calv|Ac und]
+16.7 +13.6 82 +24  1011.1  0.5  719  270           
15 28.06.12 280 (З) 10 км  слаб. ливневой дождь  10/5 600 м кучево-дожд., средняя 
[Cb cap|Ac und]
+15.1 +13.6 91 +22  1011.4  0.1  719  272    +17.2       
18 28.06.12 250 (З) >10 км  {ливн. осадки}  10/5 1000 м кучево-дожд., средняя 
[Cb calv|Ac und]
+14.1 +12.7 91 +19  1013.1  1.3  720  273    +17.2  12     
21 28.06.12 260 (З) >10 км  {ливн. осадки}  10/3 1000 м кучево-дожд., средняя 
[Cb calv|Ac und]
+14.3 +11.1 81 +17  1012.6  -0.4  720  274           
00 29.06.12 280 (З) >10 км    4/0 средняя 
[Ac trans]
+14.5 +9.2 70 +15  1012.5  0.1  720  274           
03 29.06.12 300 (СЗ) >10 км    5/3 1000 м верхняя 
[Sc|Ci fib]
+15.8 +10.9 73 +19  1012.6  0.4  720  272           
06 29.06.12 310 (СЗ) >10 км    3/1 1000 м верхняя 
[Sc|Ci fib]
+20.4 +10.6 53 +23  1012.3  0.4  721  268  +14    0.5     
09 29.06.12 340 (С) >10 км    6/6 700 м 
[Cu hum]
+23.1 +8 38 +23  1011.8  721  266           
12 29.06.12 260 (З) >10 км    6/6 600 м 
[Cu hum]
+23.2 +6.9 35 +23  1011.7  0.1  721  266           
15 29.06.12 340 (С) >10 км    6/4 600 м верхняя 
[Sc diur, vesp|Ci fib]
+21.3 +9.6 47 +23  1012.3  0.3  721  268    +23.9       
18 29.06.12 330 (СЗ) >10 км    5/3 600 м средняя 
[Sc diur, vesp|Ac trans]
+18.5 +9.8 57 +21  1013.7  0.8  721  270    +23.9       
21 29.06.12 260 (З) >10 км  зарница  6/4 600 м кучево-дожд., средняя 
[Cb calv|Ac trans]
+15.1 +11.1 77 +18  1014.8  0.5  722  273           
00 30.06.12 230 (ЮЗ) >10 км    4/0 средняя 
[Ac trans]
+14.4 +9.7 73 +16  1014.4  -0.5  721  274           
03 30.06.12 240 (ЮЗ) >10 км    4/0 средняя, верхняя 
[Ac trans|Ci fib]
+15.9 +10.6 71 +19  1014.4  0.3  722  273           
06 30.06.12 330 (СЗ) >10 км    3/1 600 м верхняя 
[Cu hum|Ci fib]
+21 +11 53 +24  1013.5  0.1  722  268  +12.9         
09 30.06.12 050 (СВ) >10 км  гроза без осадков  8/5 600 м кучево-дожд., верхняя 
[Cb calv|Ci fib]
+21.2 +9.6 47 +23  1012.7  -0.8  721  268           
12 30.06.12 330 (СЗ) >10 км  гроза без осадков{ливн. осадки}  9/8 720 м кучево-дожд., средняя 
[Cb calv|Ac trans]
+16.4 +11.8 74 +20  1013.4  0.1  721  272           
15 30.06.12 320 (СЗ) >10 км  {гроза, ливн. осадки}  10/8 700 м кучево-дожд., средняя 
[Cb calv|Ac und]
+16.1 +11.8 76 +20  1014.5  722  272    +22.4       
18 30.06.12 260 (З) >10 км  {гроза, ливн. осадки}  8/3 600 м кучево-дожд., средняя, верхняя 
[Cb calv|Ac trans|Ci fib]
+13.7 +10.5 81 +16  1015.5  0.5  722  275    +22.4     
21 30.06.12 300 (СЗ) >10 км    9/4 600 м кучево-дожд., средняя 
[Cb calv|Ac trans]
+13.2 +10.4 83 +16  1014.9  -0.7  722  275           
00 01.07.12 290 (З) >10 км  слаб. ливневой дождь  10/8 840 м кучево-дожд., средняя 
[Cb cap|Ac und]
+12.9 +11.1 89 +16  1014.8  0.1  722  275           
03 01.07.12 320 (СЗ) >10 км  {ливн. осадки}  10/5 600 м кучево-дожд., средняя 
[Cb calv|Ac und]
+13.6 +12.1 91 +19  1014.7  -0.1  722  275          мокрая 
06 01.07.12 320 (СЗ) >10 км  слаб. ливневой дождь  10/5 300 м кучево-дожд., средняя 
[Cb cap|Ac und]
+14 +12.9 93 +20  1015.3  0.6  722  274  +11.5    0.9     
09 01.07.12 010 (С) >10 км  {ливн. осадки}  10/8 420 м кучево-дожд., средняя 
[Cb calv|Ac und]
+16.2 +13.3 83 +23  1014.9  0.6  722  272           
12 01.07.12 030 (СВ) >10 км  {ливн. осадки}  9/8 600 м кучево-дожд., средняя 
[Cb calv|Ac trans]
+16.5 +11.7 73 +20  1014.5  -0.3  722  272           
15 01.07.12 360 (С) >10 км    8/4 600 м кучево-дожд., средняя 
[Cb calv|Ac trans]
+17.6 +12.8 73 +24  1014.5  -0.3  722  271    +18.2       
18 01.07.12 020 (С) >10 км    9/5 600 м кучево-дожд., средняя 
[Cb calv|Ac trans]
+16.7 +13.5 81 +25  1016.5  -0.3  723  272    +18.2     
21 01.07.12 200 (Ю) >10 км  слаб. ливневой дождь  10/6 900 м кучево-дожд., средняя 
[Cb cap|Ac und]
+15 +13.2 89 +23  1016.7  0.1  723  274           
00 02.07.12 260 (З) >10 км  {ливн. осадки}  10/5 600 м кучево-дожд., средняя 
[Cb calv|Ac trans]
+14.9 +11.4 80 +20  1015.6  -1.1  722  274           
03 02.07.12 260 (З) >10 км    9/4 1000 м кучево-дожд., средняя 
[Cb calv|Ac trans]
+15.6 +12.9 84 +21  1015.9  0.4  723  273           
06 02.07.12 260 (З) >10 км  слаб. ливневой дождь  10/6 1000 м кучево-дожд., средняя 
[Cb cap|Ac und]
+16.3 +14.1 87 +25  1016.6  0.8  723  272  +14.5    0.0     
Время (UTC), дата Ветер
(°,м/с) 
Видим.   Явления Облачность Т
(°С)
Тd
(°С)
f(%) Тe
(°С)
Pmin
(гПа)
dP
(гПа)
Po
(мм)
O2
(г/м3)
Тmin Tmax R s Состояние
почвы